Location: Chimay
(50.0486°N, 4.3171°E)
Time: 10:39:51
(UTC+00:00)

Genesis I - Pass Details

Date: 08 August 2020
Orbit: 505 x 518 km, 64.5° (Epoch: 20 September)

Event Time Altitude Azimuth Distance (km) Brightness Sun altitude
Rises 20:42:28 0° 319° (NW) 2,624 8.9 -12.5°
Reaches altitude 10° 20:44:38 10° 321° (NW) 1,736 7.4 -12.8°
Maximum altitude 20:48:32 81° 49° (NE) 523 3.1 -13.2°
Enters shadow 20:50:50 23° 135° (SE) 1,113 4.2 -13.5°
